Location: *
(50.6089°N, 2.2719°E)
Time: 23:17:25
(UTC+00:00)

ARGOS - Pass Details

Date: 18 October 2019
Orbit: 820 x 835 km, 98.5° (Epoch: 21 November)

Event Time Altitude Azimuth Distance (km) Brightness Sun altitude
Exits shadow 20:01:15 69° 269° (W) 896 3.3 -30.1°
Drops below altitude 10° 20:06:33 10° 341° (NNW) 2,459 6.1 -30.8°
Sets 20:08:57 0° 344° (NNW) 3,398 6.9 -31.2°
